Date String (YYYY-MM-DD hh:mm:ss) UTC,Instrument flags,Ambient pressure (hPa),Sample flow (lpm),Bypass flow (lpm),Sample temperature (°C),Ambient temperature (°C),ASC tube jacket temperature (°C),LED temperature (°C),Box temperature (°C),Sample RH (%),Span deviation,Mass concentration (μg/m³),Mass concentration (μg/m³),Mass concentration (μg/m³)
DateTimeUTC,F1_M11,P_M11,Q1_M11,Q2_M11,T1_M11,T2_M11,T3_M11,T4_M11,T5_M11,U1_M11,ZSPAN_M11,X0_M11,X2_M11,X1_M11
2021-08-22 04:00:00,,0825.0,5.00,0.00,29.3,28.7,00.0,38.3,31.1,30.2,0002.0,0012.28,0008.04,0007.40
2021-08-22 04:01:00,,0825.0,4.99,0.00,29.4,28.7,00.0,38.4,31.2,30.1,0002.2,0012.29,0008.07,0007.42
2021-08-22 04:02:00,,0825.0,5.01,0.00,29.4,28.7,00.0,38.4,31.2,30.1,0002.1,0012.35,0008.09,0007.44
2021-08-22 04:03:00,,0825.0,4.99,0.00,29.4,28.7,00.0,38.4,31.2,30.2,0002.2,0012.42,0008.15,0007.49
2021-08-22 04:04:00,,0824.9,4.99,0.00,29.4,28.8,00.0,38.4,31.2,30.3,0002.1,0012.37,0008.18,0007.52
2021-08-22 04:05:00,,0825.0,5.00,0.00,29.4,28.8,00.0,38.4,31.2,30.3,0002.1,0012.40,0008.20,0007.56
2021-08-22 04:06:00,,0824.9,5.00,0.00,29.4,28.8,00.0,38.5,31.2,30.5,0001.8,0012.89,0008.28,0007.64
2021-08-22 04:07:00,,0824.9,5.00,0.00,29.4,28.8,00.0,38.5,31.2,31.3,0001.5,0012.82,0008.33,0007.73
2021-08-22 04:08:00,,0825.0,4.99,0.00,29.4,28.8,00.0,38.5,31.2,32.2,0001.6,0012.83,0008.38,0007.78
2021-08-22 04:09:00,,0825.0,4.99,0.00,29.4,28.8,00.0,38.5,31.2,32.4,0001.8,0012.56,0008.38,0007.81
2021-08-22 04:10:00,,0825.0,5.00,0.00,29.4,28.8,00.0,38.5,31.2,32.4,0001.9,0012.45,0008.44,0007.85
2021-08-22 04:11:00,,0825.0,5.00,0.00,29.4,28.7,00.0,38.5,31.2,32.2,0001.9,0012.47,0008.47,0007.90
2021-08-22 04:12:00,,0825.0,5.00,0.00,29.4,28.7,00.0,38.5,31.2,31.5,0001.8,0012.60,0008.53,0007.93
2021-08-22 04:13:00,,0825.0,4.99,0.00,29.4,28.7,00.0,38.5,31.2,31.5,0001.7,0012.59,0008.57,0007.97
2021-08-22 04:14:00,,0825.0,4.99,0.00,29.4,28.7,00.0,38.5,31.2,31.1,0001.7,0012.42,0008.57,0008.02
2021-08-22 04:15:00,,0824.9,5.01,0.00,29.4,28.7,00.0,38.5,31.2,30.9,0001.6,0012.44,0008.58,0008.05
2021-08-22 04:16:00,,0825.0,5.01,0.00,29.4,28.7,00.0,38.5,31.2,30.5,0001.7,0012.41,0008.60,0008.07
2021-08-22 04:17:00,,0825.0,5.00,0.00,29.4,28.8,00.0,38.5,31.2,30.2,0002.1,0012.08,0008.58,0008.07
2021-08-22 04:18:00,,0825.1,5.00,0.00,29.4,28.8,00.0,38.5,31.2,30.0,0002.4,0012.31,0008.58,0008.05
2021-08-22 04:19:00,,0825.0,4.99,0.00,29.4,28.8,00.0,38.5,31.2,29.8,0002.4,0012.50,0008.62,0008.08
2021-08-22 04:20:00,,0825.0,5.00,0.00,29.4,28.8,00.0,38.5,31.2,29.4,0002.4,0012.93,0008.66,0008.11
2021-08-22 04:21:00,,0825.0,5.00,0.00,29.4,28.8,00.0,38.5,31.2,28.6,0002.3,0013.49,0008.66,0008.13
2021-08-22 04:22:00,,0825.0,5.00,0.00,29.4,28.8,00.0,38.6,31.2,28.2,0002.2,0013.53,0008.66,0008.10
2021-08-22 04:23:00,,0825.0,4.99,0.00,29.4,28.8,00.0,38.6,31.2,28.3,0002.4,0013.41,0008.59,0008.07
2021-08-22 04:24:00,,0825.1,5.00,0.00,29.4,28.8,00.0,38.6,31.2,28.2,0002.5,0013.39,0008.54,0008.02
2021-08-22 04:25:00,,0825.1,5.00,0.00,29.4,28.8,00.0,38.6,31.2,28.3,0002.5,0013.33,0008.49,0007.97
2021-08-22 04:26:00,,0825.1,5.00,0.00,29.4,28.8,00.0,38.6,31.2,27.7,0002.4,0013.22,0008.40,0007.90
2021-08-22 04:27:00,,0825.2,5.00,0.00,29.4,28.8,00.0,38.6,31.2,28.6,0002.4,0013.83,0008.36,0007.85
2021-08-22 04:28:00,,0825.1,5.00,0.00,29.4,28.8,00.0,38.6,31.2,30.2,0002.4,0013.84,0008.33,0007.80
2021-08-22 04:29:00,,0825.1,5.01,0.00,29.4,28.8,00.0,38.6,31.2,30.1,0002.4,0013.78,0008.29,0007.77
2021-08-22 04:30:00,,0825.1,5.00,0.00,29.5,28.9,00.0,38.6,31.3,29.4,0002.5,0014.25,0008.24,0007.73
2021-08-22 04:31:00,,0825.1,5.00,0.00,29.5,28.3,00.0,38.6,31.1,29.2,0002.3,0014.14,0008.21,0007.69
2021-08-22 04:32:00,,0825.1,5.00,0.00,29.4,26.5,00.0,38.5,30.6,28.7,0002.0,0013.30,0008.19,0007.65
2021-08-22 04:33:00,,0825.1,5.01,0.00,29.2,25.9,00.0,38.5,30.5,29.1,0002.0,0013.18,0008.14,0007.63
2021-08-22 04:34:00,,0825.0,5.00,0.00,29.1,26.2,00.0,38.4,30.5,30.0,0001.7,0013.20,0008.15,0007.64
2021-08-22 04:35:00,,0825.0,5.00,0.00,29.1,26.6,00.0,38.4,30.6,29.7,0001.6,0013.15,0008.15,0007.66
2021-08-22 04:36:00,,0824.9,4.99,0.00,29.1,27.0,00.0,38.4,30.7,29.3,0001.6,0013.11,0008.14,0007.66
2021-08-22 04:37:00,,0825.0,5.00,0.00,29.1,27.4,00.0,38.4,30.8,29.1,0001.6,0013.17,0008.16,0007.68
2021-08-22 04:38:00,,0825.0,4.98,0.00,29.1,27.6,00.0,38.4,30.9,29.4,0001.8,0012.59,0008.18,0007.69
2021-08-22 04:39:00,,0824.9,5.01,0.00,29.2,27.8,00.0,38.4,31.0,29.6,0001.7,0012.37,0008.18,0007.70
2021-08-22 04:40:00,,0824.9,4.99,0.00,29.2,28.0,00.0,38.4,31.0,29.3,0001.7,0012.26,0008.19,0007.70
2021-08-22 04:41:00,,0824.9,5.01,0.00,29.3,28.2,00.0,38.4,31.1,29.2,0001.5,0011.76,0008.20,0007.71
2021-08-22 04:42:00,,0825.0,4.99,0.00,29.3,28.3,00.0,38.4,31.1,29.5,0001.7,0012.17,0008.20,0007.73
2021-08-22 04:43:00,,0824.9,4.99,0.00,29.3,28.4,00.0,38.4,31.2,29.1,0002.1,0012.14,0008.20,0007.75
2021-08-22 04:44:00,,0824.9,5.00,0.00,29.4,28.5,00.0,38.4,31.2,28.6,0002.2,0012.20,0008.22,0007.76
2021-08-22 04:45:00,,0824.9,5.00,0.00,29.4,28.5,00.0,38.4,31.2,28.4,0002.2,0012.09,0008.19,0007.75
2021-08-22 04:46:00,,0824.9,5.00,0.00,29.4,28.6,00.0,38.4,31.2,28.2,0002.3,0012.03,0008.18,0007.72
2021-08-22 04:47:00,,0824.9,5.00,0.00,29.4,28.6,00.0,38.5,31.2,28.4,0002.4,0012.01,0008.15,0007.69
2021-08-22 04:48:00,,0824.9,5.01,0.00,29.4,28.6,00.0,38.5,31.2,28.5,0002.5,0012.00,0008.14,0007.67
2021-08-22 04:49:00,,0824.9,4.99,0.00,29.4,28.7,00.0,38.5,31.2,28.5,0002.4,0012.06,0008.15,0007.66
2021-08-22 04:50:00,,0824.9,5.02,0.00,29.4,28.7,00.0,38.5,31.2,28.5,0002.4,0012.08,0008.13,0007.64
2021-08-22 04:51:00,,0824.9,4.99,0.00,29.5,28.7,00.0,38.5,31.3,28.6,0002.2,0012.20,0008.12,0007.64
2021-08-22 04:52:00,,0824.9,5.00,0.00,29.5,28.7,00.0,38.5,31.3,28.4,0002.2,0012.09,0008.14,0007.63
2021-08-22 04:53:00,,0824.9,5.00,0.00,29.5,28.8,00.0,38.6,31.3,28.6,0002.5,0011.71,0008.14,0007.61
2021-08-22 04:54:00,,0824.9,5.01,0.00,29.5,28.8,00.0,38.6,31.3,28.8,0002.4,0011.72,0008.13,0007.58
2021-08-22 04:55:00,,0824.9,4.99,0.00,29.5,28.8,00.0,38.6,31.2,28.9,0002.5,0011.72,0008.12,0007.55
2021-08-22 04:56:00,,0824.8,5.01,0.00,29.5,28.8,00.0,38.6,31.3,29.0,0002.6,0012.16,0008.12,0007.53
2021-08-22 04:57:00,,0824.8,4.99,0.00,29.5,28.8,00.0,38.6,31.3,29.0,0002.5,0012.52,0008.16,0007.54
2021-08-22 04:58:00,,0824.8,5.01,0.00,29.5,28.8,00.0,38.6,31.3,29.0,0002.4,0012.57,0008.18,0007.54
2021-08-22 04:59:00,,0824.8,5.00,0.00,29.5,28.8,00.0,38.6,31.3,29.0,0002.4,0012.59,0008.17,0007.52
